Fort Pierce, FL

9:11 PM EST on February 09, 2016 (GMT -0500)
Saint Lucie County International

Weather History for KFPR - April, 2013

Change the Weather History Date:

Sunday, April 28, 2013

  Actual Average Record
Temperature  
Mean Temperature 77 °F -  
Max Temperature 82 °F 83 °F 95 °F (1971)
Min Temperature 73 °F 62 °F 33 °F (1997)
Cooling Degree Days 12    
Growing Degree Days 27 (Base 50)    
Moisture  
Dew Point 61 °F    
Average Humidity 58    
Maximum Humidity 66    
Minimum Humidity 48    
Precipitation  
Precipitation 0.00 in - - ()
Sea Level Pressure  
Sea Level Pressure 30.08 in    
Wind  
Wind Speed 13 mph (ESE)    
Max Wind Speed 20 mph    
Max Gust Speed 25 mph    
Visibility 10 miles    
Events      
Averages and records for this station are not official NWS values.
T = Trace of Precipitation, MM = Missing Value Source: NWS Daily Summary

Daily Weather History Graph

Daily Weather History Graph

Search for Another Location

Airport or City:

Trip Planner

Search our weather history database for the weather conditions in past years. The results will help you decide how hot, cold, wet, or windy it might be!

Date:

Astronomy

Apr. 28, 2013 Rise Set
Actual Time 6:44 AM EDT 7:53 PM EDT
Civil Twilight 6:20 AM EDT 8:18 PM EDT
Nautical Twilight 5:51 AM EDT 8:47 PM EDT
Astronomical Twilight 5:21 AM EDT 9:17 PM EDT
Moon 11:13 PM EDT (4/28) 9:09 AM EDT (4/28)
Length of Visible Light 13h 58m
Length of Day
13h 09m
Waning Gibbous, 89% of the Moon is Illuminated
Apr 28
Waning Gibbous
May 2
Last Quarter
May 9
New
May 18
First Quarter
May 25
Full

Hourly Weather History & Observations

Time (EDT) Temp. Heat Index Dew Point Humidity Pressure Visibility Wind Dir Wind Speed Gust Speed Precip Events Conditions
12:53 AM 73.0 °F - 61.0 °F 66% 30.14 in 10.0 mi East 8.1 mph - N/A   Scattered Clouds
1:53 AM 73.9 °F - 61.0 °F 64% 30.12 in 10.0 mi East 11.5 mph - N/A   Partly Cloudy
2:53 AM 73.9 °F - 61.0 °F 64% 30.10 in 10.0 mi ESE 12.7 mph - N/A   Scattered Clouds
3:53 AM 73.0 °F - 60.1 °F 64% 30.09 in 10.0 mi ESE 10.4 mph - N/A   Clear
4:53 AM 73.0 °F - 59.0 °F 61% 30.08 in 10.0 mi ESE 13.8 mph - N/A   Clear
5:53 AM 73.0 °F - 60.1 °F 64% 30.08 in 10.0 mi ESE 11.5 mph - N/A   Clear
6:53 AM 73.0 °F - 60.1 °F 64% 30.08 in 10.0 mi ESE 13.8 mph - N/A   Clear
7:53 AM 75.0 °F - 59.0 °F 57% 30.09 in 10.0 mi ESE 13.8 mph - N/A   Scattered Clouds
8:53 AM 77.0 °F - 60.8 °F 57% 30.10 in 10.0 mi ESE 17.3 mph - N/A   Scattered Clouds
9:53 AM 77.0 °F - 61.0 °F 58% 30.12 in 10.0 mi ESE 17.3 mph - N/A   Partly Cloudy
10:53 AM 80.1 °F 80.9 °F 60.1 °F 50% 30.13 in 10.0 mi ESE 13.8 mph - N/A   Clear
11:53 AM 81.0 °F 81.7 °F 61.0 °F 50% 30.13 in 10.0 mi ESE 16.1 mph 21.9 mph N/A   Scattered Clouds
12:53 PM 81.0 °F 81.7 °F 61.0 °F 50% 30.12 in 10.0 mi ESE 15.0 mph - N/A   Mostly Cloudy
1:53 PM 81.0 °F 81.6 °F 60.1 °F 49% 30.11 in 10.0 mi ESE 13.8 mph 23.0 mph N/A   Clear
2:53 PM 81.0 °F 81.9 °F 62.1 °F 52% 30.09 in 10.0 mi ESE 16.1 mph 23.0 mph N/A   Scattered Clouds
3:53 PM 81.0 °F 81.9 °F 62.1 °F 52% 30.05 in 10.0 mi ESE 19.6 mph 25.3 mph N/A   Partly Cloudy
4:53 PM 80.1 °F 80.7 °F 59.0 °F 48% 30.04 in 10.0 mi ESE 16.1 mph 24.2 mph N/A   Clear
5:53 PM 79.0 °F - 60.1 °F 52% 30.03 in 10.0 mi ESE 16.1 mph - N/A   Clear
6:53 PM 78.1 °F - 61.0 °F 56% 30.03 in 10.0 mi ESE 16.1 mph - N/A   Scattered Clouds
7:53 PM 75.9 °F - 61.0 °F 60% 30.03 in 10.0 mi ESE 12.7 mph - N/A   Scattered Clouds
8:53 PM 75.0 °F - 62.1 °F 64% 30.04 in 10.0 mi ESE 9.2 mph - N/A   Partly Cloudy
9:53 PM 75.0 °F - 63.0 °F 66% 30.04 in 10.0 mi ESE 10.4 mph - N/A   Mostly Cloudy
10:53 PM 75.0 °F - 63.0 °F 66% 30.04 in 10.0 mi ESE 12.7 mph - N/A   Partly Cloudy
11:53 PM 75.0 °F - 63.0 °F 66% 30.05 in 10.0 mi ESE 13.8 mph - N/A   Mostly Cloudy